Weather History for Gwinn, MI

Change the Weather History Date:

Tuesday, February 28, 2012

  Actual Average (KESC) Record (KESC)
Temperature  
Mean Temperature 18 °F -  
Max Temperature 28 °F 30 °F 44 °F (1998)
Min Temperature 9 °F 12 °F -25 °F (2014)
Degree Days  
Heating Degree Days 46    
Moisture  
Dew Point 17 °F    
Average Humidity 86    
Maximum Humidity 93    
Minimum Humidity 74    
Precipitation  
Precipitation 0.00 in - - ()
Sea Level Pressure  
Sea Level Pressure 30.28 in    
Wind  
Wind Speed 1 mph (South)    
Max Wind Speed 13 mph    
Max Gust Speed -    
Visibility 8 miles    
Events Snow    
Averages and records for this station are not official NWS values.
T = Trace of Precipitation, MM = Missing Value Source: NWS Daily Summary

Daily Weather History Graph

Daily Weather History Graph

Search for Another Location

Airport:

Trip Planner

Search our weather history database for the weather conditions in past years. The results will help you decide how hot, cold, wet, or windy it might be!

Date:

Astronomy

Feb. 28, 2012 Rise Set
Actual Time 7:31 AM EST 6:33 PM EST
Civil Twilight 7:01 AM EST 7:03 PM EST
Nautical Twilight 6:26 AM EST 7:38 PM EST
Astronomical Twilight 5:51 AM EST 8:13 PM EST
Moon 10:13 AM EST (2/28) 12:50 AM EST (2/28)
Length of Visible Light 12h 02m
Length of Day
11h 02m
Waxing Crescent, 37% of the Moon is Illuminated
Feb 28
Waxing Crescent
Feb 29
First Quarter
Mar 8
Full
Mar 14
Last Quarter
Mar 22
New

Hourly Weather History & Observations

Time (EST) Temp. Windchill Dew Point Humidity Pressure Visibility Wind Dir Wind Speed Gust Speed Precip Events Conditions
12:17 AM 14.7 °F - 10.4 °F 83% 30.39 in 10.0 mi Calm Calm - N/A   Clear
12:36 AM 13.1 °F - 9.3 °F 85% 30.39 in 10.0 mi Calm Calm - N/A   Clear
12:57 AM 12.9 °F - 9.5 °F 86% 30.37 in 10.0 mi Calm Calm - N/A   Clear
1:17 AM 12.4 °F - 8.8 °F 85% 30.38 in 10.0 mi Calm Calm - N/A   Clear
1:36 AM 13.1 °F - 10.2 °F 88% 30.36 in 10.0 mi Calm Calm - N/A   Clear
1:57 AM 12.4 °F - 8.8 °F 85% 30.37 in 10.0 mi Calm Calm - N/A   Clear
2:17 AM 14.0 °F - 10.4 °F 86% 30.37 in 10.0 mi Calm Calm - N/A   Clear
2:37 AM 12.2 °F - 8.6 °F 85% 30.38 in 10.0 mi Calm Calm - N/A   Clear
2:57 AM 10.9 °F - 6.8 °F 83% 30.37 in 10.0 mi Calm Calm - N/A   Clear
3:16 AM 9.9 °F - 5.9 °F 84% 30.38 in 10.0 mi Calm Calm - N/A   Clear
3:37 AM 10.4 °F - 7.3 °F 87% 30.36 in 10.0 mi Calm Calm - N/A   Clear
3:57 AM 12.2 °F - 9.0 °F 87% 30.36 in 10.0 mi Calm Calm - N/A   Scattered Clouds
4:16 AM 13.3 °F - 10.0 °F 87% 30.36 in 10.0 mi Calm Calm - N/A   Mostly Cloudy
4:37 AM 14.0 °F - 10.4 °F 86% 30.36 in 10.0 mi Calm Calm - N/A   Mostly Cloudy
4:57 AM 12.9 °F - 9.5 °F 86% 30.36 in 10.0 mi Calm Calm - N/A   Scattered Clouds
5:16 AM 13.3 °F - 10.0 °F 87% 30.36 in 10.0 mi Calm Calm - N/A   Scattered Clouds
5:37 AM 13.8 °F - 10.2 °F 86% 30.36 in 10.0 mi Calm Calm - N/A   Mostly Cloudy
5:56 AM 14.9 °F - 11.1 °F 85% 30.37 in 10.0 mi Calm Calm - N/A   Overcast
6:50 AM 15.8 °F - 12.2 °F 86% 30.36 in 10.0 mi Calm Calm - N/A   Overcast
7:50 AM 17.6 °F - 12.2 °F 79% 30.33 in 10.0 mi Calm Calm - N/A   Overcast
8:50 AM 17.6 °F - 12.2 °F 79% 30.36 in 10.0 mi Calm Calm - N/A   Overcast
9:50 AM 21.2 °F - 15.8 °F 80% 30.34 in 10.0 mi Calm Calm - N/A   Overcast
10:50 AM 24.8 °F 13.4 °F 17.6 °F 74% 30.32 in 10.0 mi SSW 12.7 mph - N/A   Overcast
11:05 AM 24.8 °F 15.3 °F 19.4 °F 80% 30.32 in 2.5 mi SSW 9.2 mph - N/A Snow Light Snow
11:50 AM 26.6 °F 18.2 °F 21.2 °F 80% 30.31 in 2.0 mi SSW 8.1 mph - N/A Snow Light Snow
12:50 PM 28.4 °F - 23.0 °F 80% 30.29 in 2.5 mi Calm Calm - N/A Snow Light Snow
1:50 PM 28.4 °F 20.4 °F 24.8 °F 86% 30.26 in 1.5 mi South 8.1 mph - N/A Snow Light Snow
2:50 PM 28.4 °F 22.2 °F 24.8 °F 86% 30.23 in 2.5 mi South 5.8 mph - N/A Snow Light Snow
3:50 PM 28.4 °F - 24.8 °F 86% 30.22 in 2.5 mi Calm Calm - N/A Snow Light Snow
4:50 PM 28.4 °F - 26.6 °F 93% 30.19 in 2.5 mi Calm Calm - N/A Snow Light Snow
5:50 PM 28.4 °F - 24.8 °F 86% 30.17 in 4.0 mi Calm Calm - N/A Snow Light Snow
6:50 PM 28.4 °F - 26.6 °F 93% 30.17 in 7.0 mi Calm Calm - N/A Snow Light Snow
7:50 PM 28.4 °F - 26.6 °F 93% 30.16 in 10.0 mi Calm Calm - N/A Snow Light Snow
8:50 PM 28.4 °F - 26.6 °F 93% 30.14 in 7.0 mi Calm Calm - N/A   Overcast
9:50 PM 28.4 °F - 24.8 °F 86% 30.12 in 7.0 mi Calm Calm - N/A   Overcast
10:17 PM 27.7 °F - 25.2 °F 90% 30.11 in 7.0 mi Calm Calm - N/A   Overcast
10:37 PM 28.4 °F - 24.8 °F 86% 30.11 in 7.0 mi Calm Calm - N/A   Overcast
10:56 PM 28.0 °F - 25.7 °F 91% 30.11 in 7.0 mi Calm Calm - N/A   Overcast
11:17 PM 28.0 °F 20.8 °F 25.7 °F 91% 30.10 in 5.0 mi SE 6.9 mph - N/A   Overcast
11:36 PM 28.0 °F 20.0 °F 26.2 °F 93% 30.09 in 4.0 mi SE 8.1 mph - N/A   Overcast
11:57 PM 28.2 °F 21.0 °F 26.4 °F 93% 30.07 in 5.0 mi SE 6.9 mph - N/A   Overcast